Location: Coed Ely
(51.5661°N, 3.4150°W)
Time: 23:20:37
(UTC+00:00)

Meteor 1-11 - Pass Details

Date: 28 January 2021
Orbit: 840 x 887 km, 81.2° (Epoch: 01 March)

Event Time Altitude Azimuth Distance (km) Brightness Sun altitude
Rises 18:44:20 0° 186° (S) 3,435 7.6 -16.7°
Reaches altitude 10° 18:46:45 10° 185° (S) 2,495 6.8 -17.1°
Maximum altitude 18:52:25 78° 100° (E) 877 4.1 -17.9°
Drops below altitude 10° 18:58:02 10° 15° (NNE) 2,484 6.4 -18.8°
Sets 19:00:27 0° 14° (NNE) 3,419 7.2 -19.2°
